Regional Weather Roundup
Issued by NWS

Home | Current Version | Previous Version | Text Only | Print | Product List | Glossary Off
Versions: 1 2 3 4 5 6 7 8 9 10 11 12 13 14 15 16 17 18 19 20 21 22 23 24 25 26 27 28 29 30 31 32 33 34 35 36 37 38 39 40 41 42 43 44 45 46 47 48 49 50

076
ASUS44 KLIX 271401
RWRLA
LOUISIANA WEATHER ROUNDUP
NATIONAL WEATHER SERVICE NEW ORLEANS LA
800 AM CST FRI FEB 27 2015

NOTE: "FAIR" INDICATES FEW OR NO CLOUDS BELOW 12,000 FEET WITH NO
      SIGNIFICANT WEATHER AND/OR OBSTRUCTIONS TO VISIBILITY.
      SKY/WX - SKY CONDITION AND SIGNIFICANT WEATHER.
      TMP - AIR TEMPERATURE.    DP   - DEWPOINT TEMPERATURE.
      RH  - RELATIVE HUMIDITY.  PRES - PRESSURE.
      HX  - HEAT INDEX.         WCI  - WIND CHILL INDEX.

*  THESE STATIONS ARE NOT NWS OR FAA STATIONS AND ARE NOT UNDER
   NWS QUALITY CONTROL.

LAZ040-048-061>063-065-066-069-271500-
SOUTHEAST LOUISIANA

CITY           SKY/WX    TMP DP  RH WIND       PRES   REMARKS
N.O. AUDUBON     N/A     38  33  80 MISG        N/A
N.O. INTL ARPT PTSUNNY   38  30  73 NE18G28   30.39S WCI  28
N.O. LAKEFRONT MOSUNNY   40  32  73 NE22      30.39F WCI  30
SLIDELL        SUNNY     36  31  82 NE10      30.38F WCI  28
BATON ROUGE    CLOUDY    36  29  75 NE6       30.41R WCI  31
BOOTHVILLE     CLOUDY    43  36  76 NE13G26   30.36R
BELLE CHASSE   PTSUNNY   39  29  67 NE16      30.37F HAZE    WCI  30
BOGALUSA*        N/A     38  31  77 NE8       30.41F WCI  32
GALLIANO*      CLOUDY    40  34  77 N12       30.36F WCI  33
NEW ROADS*     NOT AVBL
GONZALES*      NOT AVBL
HAMMOND*       NOT AVBL
HOUMA*         MOSUNNY   37  32  81 NE14      30.37  WCI  29
PORT FOURCHON* CLOUDY    41  36  81 NE22      30.38R

$$

LAZ041-044-053-054-271500-
SOUTHWEST LOUISIANA

CITY           SKY/WX    TMP DP  RH WIND       PRES   REMARKS
LAKE CHARLES   PTSUNNY   36  28  73 NE16      30.40R WCI  26
LAFAYETTE      PTSUNNY   36  30  79 NE9       30.39R WCI  29
PATTERSON      CLOUDY    37  30  75 NE14      30.39R WCI  29
SALT POINT       N/A     37  31  78 VRB7      30.36R WCI  32
NEW IBERIA     CLOUDY    37  30  75 NE13      30.39R WCI  29
CHENAULT AIRPK NOT AVBL

$$

LAZ027-028-271500-
CENTRAL LOUISIANA

CITY           SKY/WX    TMP DP  RH WIND       PRES   REMARKS
FORT POLK      CLOUDY    30  25  81 NE12      30.41R WCI  21
ALEXANDRIA INT CLOUDY    32  25  75 NE8G17    30.44R WCI  25
ALEXANDRIA     CLOUDY    33  23  66 NE12G21   30.44R WCI  24

$$

LAZ001-002-271500-
NORTHWEST LOUISIANA

CITY           SKY/WX    TMP DP  RH WIND       PRES   REMARKS
SHREVEPORT     MOSUNNY   29  17  61 E14       30.48R WCI  18
BARKSDALE AFB  SUNNY     28  17  63 NE8       30.49R WCI  19
DTN SHREVEPORT SUNNY     28  15  58 NE12      30.50R WCI  18

$$

LAZ014-016-271500-
NORTHEAST LOUISIANA

CITY           SKY/WX    TMP DP  RH WIND       PRES   REMARKS
MONROE         CLOUDY    29  21  72 E13       30.50R WCI  19
TALLULAH       CLOUDY    29  21  72 NE9G21    30.48R WCI  20

$$




USA.gov is the U.S. government's official web portal to all federal, state and local government web resources and services.